Year,Month,Day,Hour,Minute,Value (Times are PST for temperature in C)
2015,11,25,00,00,4.20
2015,11,25,00,01,4.20
2015,11,25,00,02,4.20
2015,11,25,00,03,4.20
2015,11,25,00,04,4.10
2015,11,25,00,05,4.10
2015,11,25,00,06,4.10
2015,11,25,00,07,4.10
2015,11,25,00,08,4.10
2015,11,25,00,09,4.10
2015,11,25,00,10,4.00
2015,11,25,00,11,4.00
2015,11,25,00,12,3.90
2015,11,25,00,13,3.90
2015,11,25,00,14,3.90
2015,11,25,00,15,3.90
2015,11,25,00,16,3.90
2015,11,25,00,17,3.90
2015,11,25,00,18,3.90
2015,11,25,00,19,3.90
2015,11,25,00,20,3.90
2015,11,25,00,21,3.90
2015,11,25,00,22,3.90
2015,11,25,00,23,3.90
2015,11,25,00,24,3.90
2015,11,25,00,25,3.80
2015,11,25,00,26,3.80
2015,11,25,00,27,3.80
2015,11,25,00,28,3.80
2015,11,25,00,29,3.80
2015,11,25,00,30,3.90
2015,11,25,00,31,3.90
2015,11,25,00,32,3.90
2015,11,25,00,33,3.90
2015,11,25,00,34,3.90
2015,11,25,00,35,3.90
2015,11,25,00,36,3.90
2015,11,25,00,37,3.80
2015,11,25,00,38,3.80
2015,11,25,00,39,3.80
2015,11,25,00,40,3.70
2015,11,25,00,41,3.70
2015,11,25,00,42,3.60
2015,11,25,00,43,3.60
2015,11,25,00,44,3.60
2015,11,25,00,45,3.60
2015,11,25,00,46,3.50
2015,11,25,00,47,3.50
2015,11,25,00,48,3.50
2015,11,25,00,49,3.40
2015,11,25,00,50,3.40
2015,11,25,00,51,3.30
2015,11,25,00,52,3.30
2015,11,25,00,53,3.30
2015,11,25,00,54,3.20
2015,11,25,00,55,3.20
2015,11,25,00,56,3.20
2015,11,25,00,57,3.20
2015,11,25,00,58,3.20
2015,11,25,00,59,3.20
2015,11,25,01,00,3.20
2015,11,25,01,01,3.20
2015,11,25,01,02,3.20
2015,11,25,01,03,3.20
2015,11,25,01,04,3.20
2015,11,25,01,05,3.10
2015,11,25,01,06,2.90
2015,11,25,01,07,2.90
2015,11,25,01,08,3.00
2015,11,25,01,09,3.00
2015,11,25,01,10,3.00
2015,11,25,01,11,3.00
2015,11,25,01,12,3.00
2015,11,25,01,13,3.00
2015,11,25,01,14,3.00
2015,11,25,01,15,3.00
2015,11,25,01,16,3.00
2015,11,25,01,17,3.10
2015,11,25,01,18,3.10
2015,11,25,01,19,3.10
2015,11,25,01,20,3.10
2015,11,25,01,21,3.20
2015,11,25,01,22,3.20
2015,11,25,01,23,3.20
2015,11,25,01,24,3.20
2015,11,25,01,25,3.20
2015,11,25,01,26,3.20
2015,11,25,01,27,3.20
2015,11,25,01,28,3.20
2015,11,25,01,29,3.20
2015,11,25,01,30,3.20
2015,11,25,01,31,3.20
2015,11,25,01,32,3.20
2015,11,25,01,33,3.20
2015,11,25,01,34,3.30
2015,11,25,01,35,3.30
2015,11,25,01,36,3.40
2015,11,25,01,37,3.40
2015,11,25,01,38,3.40
2015,11,25,01,39,3.40
2015,11,25,01,40,3.40
2015,11,25,01,41,3.50
2015,11,25,01,42,3.50
2015,11,25,01,43,3.50
2015,11,25,01,44,3.50
2015,11,25,01,45,3.50
2015,11,25,01,46,3.50
2015,11,25,01,47,3.50
2015,11,25,01,48,3.60
2015,11,25,01,49,3.60
2015,11,25,01,50,3.60
2015,11,25,01,51,3.60
2015,11,25,01,52,3.60
2015,11,25,01,53,3.70
2015,11,25,01,54,3.70
2015,11,25,01,55,3.70
2015,11,25,01,56,3.70
2015,11,25,01,57,3.70
2015,11,25,01,58,3.70
2015,11,25,01,59,3.70
2015,11,25,02,00,3.70
2015,11,25,02,01,3.70
2015,11,25,02,02,3.70
2015,11,25,02,03,3.70
2015,11,25,02,04,3.60
2015,11,25,02,05,3.60
2015,11,25,02,06,3.50
2015,11,25,02,07,3.50
2015,11,25,02,08,3.40
2015,11,25,02,09,3.40
2015,11,25,02,10,3.40
2015,11,25,02,11,3.30
2015,11,25,02,12,3.30
2015,11,25,02,13,3.30
2015,11,25,02,14,3.30
2015,11,25,02,15,3.20
2015,11,25,02,16,3.20
2015,11,25,02,17,3.20
2015,11,25,02,18,3.10
2015,11,25,02,19,3.10
2015,11,25,02,20,3.10
2015,11,25,02,21,3.10
2015,11,25,02,22,3.10
2015,11,25,02,23,3.10
2015,11,25,02,24,3.00
2015,11,25,02,25,2.90
2015,11,25,02,26,2.90
2015,11,25,02,27,2.90
2015,11,25,02,28,2.80
2015,11,25,02,29,2.80
2015,11,25,02,30,2.70
2015,11,25,02,31,2.70
2015,11,25,02,32,2.60
2015,11,25,02,33,2.40
2015,11,25,02,34,2.30
2015,11,25,02,35,2.20
2015,11,25,02,36,2.10
2015,11,25,02,37,2.10
2015,11,25,02,38,2.00
2015,11,25,02,39,2.00
2015,11,25,02,40,1.90
2015,11,25,02,41,1.90
2015,11,25,02,42,1.80
2015,11,25,02,43,1.80
2015,11,25,02,44,1.70
2015,11,25,02,45,1.60
2015,11,25,02,46,1.60
2015,11,25,02,47,1.50
2015,11,25,02,48,1.40
2015,11,25,02,49,1.30
2015,11,25,02,50,1.30
2015,11,25,02,51,1.20
2015,11,25,02,52,1.10
2015,11,25,02,53,0.90
2015,11,25,02,54,0.80
2015,11,25,02,55,0.70
2015,11,25,02,56,0.70
2015,11,25,02,57,0.60
2015,11,25,02,58,0.50
2015,11,25,02,59,0.50
2015,11,25,03,00,0.40
2015,11,25,03,01,0.40
2015,11,25,03,02,0.30
2015,11,25,03,03,0.30
2015,11,25,03,04,0.30
2015,11,25,03,05,0.20
2015,11,25,03,06,0.20
2015,11,25,03,07,0.10
2015,11,25,03,08,0.10
2015,11,25,03,09,0.10
2015,11,25,03,10,0.10
2015,11,25,03,11,0.10
2015,11,25,03,12,0.00
2015,11,25,03,13,0.00
2015,11,25,03,14,0.00
2015,11,25,03,15,-0.10
2015,11,25,03,16,-0.10
2015,11,25,03,17,-0.10
2015,11,25,03,18,-0.20
2015,11,25,03,19,-0.20
2015,11,25,03,20,-0.20
2015,11,25,03,21,-0.20
2015,11,25,03,22,-0.20
2015,11,25,03,23,-0.30
2015,11,25,03,24,-0.30
2015,11,25,03,25,-0.30
2015,11,25,03,26,-0.30
2015,11,25,03,27,-0.30
2015,11,25,03,28,-0.20
2015,11,25,03,29,-0.20
2015,11,25,03,30,-0.20
2015,11,25,03,31,-0.20
2015,11,25,03,32,-0.20
2015,11,25,03,33,-0.20
2015,11,25,03,34,-0.20
2015,11,25,03,35,-0.20
2015,11,25,03,36,-0.10
2015,11,25,03,37,-0.10
2015,11,25,03,38,-0.10
2015,11,25,03,39,-0.10
2015,11,25,03,40,0.00
2015,11,25,03,41,0.00
2015,11,25,03,42,0.00
2015,11,25,03,43,0.10
2015,11,25,03,44,0.10
2015,11,25,03,45,0.20
2015,11,25,03,46,0.20
2015,11,25,03,47,0.20
2015,11,25,03,48,0.20
2015,11,25,03,49,0.20
2015,11,25,03,50,0.20
2015,11,25,03,51,0.20
2015,11,25,03,52,0.30
2015,11,25,03,53,0.30
2015,11,25,03,54,0.20
2015,11,25,03,55,0.20
2015,11,25,03,56,0.20
2015,11,25,03,57,0.20
2015,11,25,03,58,0.10
2015,11,25,03,59,0.10
2015,11,25,04,00,0.00
2015,11,25,04,01,-0.10
2015,11,25,04,02,-0.10
2015,11,25,04,03,-0.20
2015,11,25,04,04,-0.20
2015,11,25,04,05,-0.30
2015,11,25,04,06,-0.30
2015,11,25,04,07,-0.40
2015,11,25,04,08,-0.40
2015,11,25,04,09,-0.50
2015,11,25,04,10,-0.50
2015,11,25,04,11,-0.60
2015,11,25,04,12,-0.60
2015,11,25,04,13,-0.70
2015,11,25,04,14,-0.70
2015,11,25,04,15,-0.70
2015,11,25,04,16,-0.70
2015,11,25,04,17,-0.70
2015,11,25,04,18,-0.70
2015,11,25,04,19,-0.70
2015,11,25,04,20,-0.70
2015,11,25,04,21,-0.70
2015,11,25,04,22,-0.70
2015,11,25,04,23,-0.70
2015,11,25,04,24,-0.70
2015,11,25,04,25,-0.70
2015,11,25,04,26,-0.80
2015,11,25,04,27,-0.80
2015,11,25,04,28,-0.80
2015,11,25,04,29,-0.80
2015,11,25,04,30,-0.80
2015,11,25,04,31,-0.80
2015,11,25,04,32,-0.80
2015,11,25,04,33,-0.90
2015,11,25,04,34,-0.90
2015,11,25,04,35,-0.90
2015,11,25,04,36,-0.90
2015,11,25,04,37,-1.00
2015,11,25,04,38,-1.00
2015,11,25,04,39,-1.00
2015,11,25,04,40,-1.00
2015,11,25,04,41,-1.00
2015,11,25,04,42,-1.00
2015,11,25,04,43,-1.00
2015,11,25,04,44,-0.90
2015,11,25,04,45,-0.80
2015,11,25,04,46,-0.80
2015,11,25,04,47,-0.80
2015,11,25,04,48,-0.80
2015,11,25,04,49,-0.70
2015,11,25,04,50,-0.70
2015,11,25,04,51,-0.70
2015,11,25,04,52,-0.70
2015,11,25,04,53,-0.70
2015,11,25,04,54,-0.70
2015,11,25,04,55,-0.70
2015,11,25,04,56,-0.70
2015,11,25,04,57,-0.70
2015,11,25,04,58,-0.70
2015,11,25,04,59,-0.70
2015,11,25,05,00,-0.70
2015,11,25,05,01,-0.70
2015,11,25,05,02,-0.80
2015,11,25,05,03,-0.80
2015,11,25,05,04,-0.80
2015,11,25,05,05,-0.80
2015,11,25,05,06,-0.80
2015,11,25,05,07,-0.80
2015,11,25,05,08,-0.80
2015,11,25,05,09,-0.90
2015,11,25,05,10,-0.90
2015,11,25,05,11,-0.90
2015,11,25,05,12,-0.90
2015,11,25,05,13,-0.90
2015,11,25,05,14,-0.90
2015,11,25,05,15,-0.90
2015,11,25,05,16,-0.90
2015,11,25,05,17,-0.90
2015,11,25,05,18,-0.80
2015,11,25,05,19,-0.80
2015,11,25,05,20,-0.70
2015,11,25,05,21,-0.60
2015,11,25,05,22,-0.50
2015,11,25,05,23,-0.50
2015,11,25,05,24,-0.40
2015,11,25,05,25,-0.40
2015,11,25,05,26,-0.30
2015,11,25,05,27,-0.30
2015,11,25,05,28,-0.30
2015,11,25,05,29,-0.30
2015,11,25,05,30,-0.30
2015,11,25,05,31,-0.30
2015,11,25,05,32,-0.30
2015,11,25,05,33,-0.30
2015,11,25,05,34,-0.30
2015,11,25,05,35,-0.30
2015,11,25,05,36,-0.30
2015,11,25,05,37,-0.30
2015,11,25,05,38,-0.30
2015,11,25,05,39,-0.40
2015,11,25,05,40,-0.40
2015,11,25,05,41,-0.40
2015,11,25,05,42,-0.40
2015,11,25,05,43,-0.40
2015,11,25,05,44,-0.40
2015,11,25,05,45,-0.50
2015,11,25,05,46,-0.50
2015,11,25,05,47,-0.50
2015,11,25,05,48,-0.60
2015,11,25,05,49,-0.60
2015,11,25,05,50,-0.60
2015,11,25,05,51,-0.70
2015,11,25,05,52,-0.70
2015,11,25,05,53,-0.70
2015,11,25,05,54,-0.80
2015,11,25,05,55,-0.80
2015,11,25,05,56,-0.80
2015,11,25,05,57,-0.90
2015,11,25,05,58,-0.90
2015,11,25,05,59,-1.00
2015,11,25,06,00,-1.00
2015,11,25,06,01,-1.10
2015,11,25,06,02,-1.10
2015,11,25,06,03,-1.10
2015,11,25,06,04,-1.20
2015,11,25,06,05,-1.20
2015,11,25,06,06,-1.20
2015,11,25,06,07,-1.30
2015,11,25,06,08,-1.30
2015,11,25,06,09,-1.30
2015,11,25,06,10,-1.30
2015,11,25,06,11,-1.40
2015,11,25,06,12,-1.40
2015,11,25,06,13,-1.40
2015,11,25,06,14,-1.40
2015,11,25,06,15,-1.40
2015,11,25,06,16,-1.40
2015,11,25,06,17,-1.40
2015,11,25,06,18,-1.40
2015,11,25,06,19,-1.40
2015,11,25,06,20,-1.40
2015,11,25,06,21,-1.40
2015,11,25,06,22,-1.40
2015,11,25,06,23,-1.40
2015,11,25,06,24,-1.50
2015,11,25,06,25,-1.50
2015,11,25,06,26,-1.50
2015,11,25,06,27,-1.50
2015,11,25,06,28,-1.50
2015,11,25,06,29,-1.50
2015,11,25,06,30,-1.50
2015,11,25,06,31,-1.50
2015,11,25,06,32,-1.50
2015,11,25,06,33,-1.50
2015,11,25,06,34,-1.50
2015,11,25,06,35,-1.50
2015,11,25,06,36,-1.50
2015,11,25,06,37,-1.50
2015,11,25,06,38,-1.40
2015,11,25,06,39,-1.40
2015,11,25,06,40,-1.40
2015,11,25,06,41,-1.40
2015,11,25,06,42,-1.40
2015,11,25,06,43,-1.40
2015,11,25,06,44,-1.50
2015,11,25,06,45,-1.50
2015,11,25,06,46,-1.50
2015,11,25,06,47,-1.60
2015,11,25,06,48,-1.60
2015,11,25,06,49,-1.60
2015,11,25,06,50,-1.60
2015,11,25,06,51,-1.60
2015,11,25,06,52,-1.60
2015,11,25,06,53,-1.70
2015,11,25,06,54,-1.70
2015,11,25,06,55,-1.70
2015,11,25,06,56,-1.70
2015,11,25,06,57,-1.70
2015,11,25,06,58,-1.70
2015,11,25,06,59,-1.70
2015,11,25,07,00,-1.70
2015,11,25,07,01,-1.70
2015,11,25,07,02,-1.70
2015,11,25,07,03,-1.70
2015,11,25,07,04,-1.70
2015,11,25,07,05,-1.70
2015,11,25,07,06,-1.70
2015,11,25,07,07,-1.80
2015,11,25,07,08,-1.80
2015,11,25,07,09,-1.80
2015,11,25,07,10,-1.80
2015,11,25,07,11,-1.80
2015,11,25,07,12,-1.70
2015,11,25,07,13,-1.70
2015,11,25,07,14,-1.70
2015,11,25,07,15,-1.70
2015,11,25,07,16,-1.70
2015,11,25,07,17,-1.70
2015,11,25,07,18,-1.70
2015,11,25,07,19,-1.70
2015,11,25,07,20,-1.70
2015,11,25,07,21,-1.80
2015,11,25,07,22,-1.80
2015,11,25,07,23,-1.80
2015,11,25,07,24,-1.80
2015,11,25,07,25,-1.80
2015,11,25,07,26,-1.80
2015,11,25,07,27,-1.80
2015,11,25,07,28,-1.80
2015,11,25,07,29,-1.80
2015,11,25,07,30,-1.80
2015,11,25,07,31,-1.80
2015,11,25,07,32,-1.80
2015,11,25,07,33,-1.80
2015,11,25,07,34,-1.80
2015,11,25,07,35,-1.80
2015,11,25,07,36,-1.80
2015,11,25,07,37,-1.80
2015,11,25,07,38,-1.80
2015,11,25,07,39,-1.80
2015,11,25,07,40,-1.70
2015,11,25,07,41,-1.70
2015,11,25,07,42,-1.70
2015,11,25,07,43,-1.70
2015,11,25,07,44,-1.70
2015,11,25,07,45,-1.70
2015,11,25,07,46,-1.70
2015,11,25,07,47,-1.70
2015,11,25,07,48,-1.70
2015,11,25,07,49,-1.70
2015,11,25,07,50,-1.70
2015,11,25,07,51,-1.70
2015,11,25,07,52,-1.60
2015,11,25,07,53,-1.60
2015,11,25,07,54,-1.60
2015,11,25,07,55,-1.60
2015,11,25,07,56,-1.60
2015,11,25,07,57,-1.60
2015,11,25,07,58,-1.60
2015,11,25,07,59,-1.60
2015,11,25,08,00,-1.60
2015,11,25,08,01,-1.60
2015,11,25,08,02,-1.60
2015,11,25,08,03,-1.60
2015,11,25,08,04,-1.50
2015,11,25,08,05,-1.50
2015,11,25,08,06,-1.50
2015,11,25,08,07,-1.40
2015,11,25,08,08,-1.40
2015,11,25,08,09,-1.40
2015,11,25,08,10,-1.40
2015,11,25,08,11,-1.30
2015,11,25,08,12,-1.30
2015,11,25,08,13,-1.30
2015,11,25,08,14,-1.20
2015,11,25,08,15,-1.20
2015,11,25,08,16,-1.20
2015,11,25,08,17,-1.20
2015,11,25,08,18,-1.20
2015,11,25,08,19,-1.10
2015,11,25,08,20,-1.10
2015,11,25,08,21,-1.00
2015,11,25,08,22,-1.00
2015,11,25,08,23,-1.00
2015,11,25,08,24,-0.90
2015,11,25,08,25,-0.90
2015,11,25,08,26,-0.90
2015,11,25,08,27,-0.80
2015,11,25,08,28,-0.80
2015,11,25,08,29,-0.80
2015,11,25,08,30,-0.80
2015,11,25,08,31,-0.80
2015,11,25,08,32,-0.70
2015,11,25,08,33,-0.70
2015,11,25,08,34,-0.60
2015,11,25,08,35,-0.60
2015,11,25,08,36,-0.60
2015,11,25,08,37,-0.60
2015,11,25,08,38,-0.60
2015,11,25,08,39,-0.60
2015,11,25,08,40,-0.60
2015,11,25,08,41,-0.50
2015,11,25,08,42,-0.40
2015,11,25,08,43,-0.40
2015,11,25,08,44,-0.30
2015,11,25,08,45,-0.30
2015,11,25,08,46,-0.20
2015,11,25,08,47,-0.10
2015,11,25,08,48,-0.10
2015,11,25,08,49,0.00
2015,11,25,08,50,0.10
2015,11,25,08,51,0.10
2015,11,25,08,52,0.20
2015,11,25,08,53,0.20
2015,11,25,08,54,0.30
2015,11,25,08,55,0.30
2015,11,25,08,56,0.30
2015,11,25,08,57,0.30
2015,11,25,08,58,0.40
2015,11,25,08,59,0.40
2015,11,25,09,00,0.50
2015,11,25,09,01,0.60
2015,11,25,09,02,0.60
2015,11,25,09,03,0.70
2015,11,25,09,04,0.80
2015,11,25,09,05,0.80
2015,11,25,09,06,0.90
2015,11,25,09,07,1.00
2015,11,25,09,08,1.00
2015,11,25,09,09,1.10
2015,11,25,09,10,1.20
2015,11,25,09,11,1.30
2015,11,25,09,12,1.30
2015,11,25,09,13,1.30
2015,11,25,09,14,1.40
2015,11,25,09,15,1.50
2015,11,25,09,16,1.60
2015,11,25,09,17,1.70
2015,11,25,09,18,1.70
2015,11,25,09,19,1.70
2015,11,25,09,20,1.80
2015,11,25,09,21,1.90
2015,11,25,09,22,1.90
2015,11,25,09,23,2.00
2015,11,25,09,24,2.10
2015,11,25,09,25,2.20
2015,11,25,09,26,2.30
2015,11,25,09,27,2.40
2015,11,25,09,28,2.50
2015,11,25,09,29,2.60
2015,11,25,09,30,2.70
2015,11,25,09,31,2.80
2015,11,25,09,32,2.90
2015,11,25,09,33,3.00
2015,11,25,09,34,3.10
2015,11,25,09,35,3.20
2015,11,25,09,36,3.30
2015,11,25,09,37,3.30
2015,11,25,09,38,3.40
2015,11,25,09,39,3.40
2015,11,25,09,40,3.40
2015,11,25,09,41,3.50
2015,11,25,09,42,3.50
2015,11,25,09,43,3.60
2015,11,25,09,44,3.70
2015,11,25,09,45,3.70
2015,11,25,09,46,3.80
2015,11,25,09,47,3.80
2015,11,25,09,48,3.90
2015,11,25,09,49,4.00
2015,11,25,09,50,4.00
2015,11,25,09,51,4.10
2015,11,25,09,52,4.10
2015,11,25,09,53,4.10
2015,11,25,09,54,4.20
2015,11,25,09,55,4.20
2015,11,25,09,56,4.20
2015,11,25,09,57,4.20
2015,11,25,09,58,4.30
2015,11,25,09,59,4.30
2015,11,25,10,00,4.40
2015,11,25,10,01,4.40
2015,11,25,10,02,4.50
2015,11,25,10,03,4.50
2015,11,25,10,04,4.60
2015,11,25,10,05,4.70
2015,11,25,10,06,4.80
2015,11,25,10,07,4.90
2015,11,25,10,08,4.90
2015,11,25,10,09,5.00
2015,11,25,10,10,5.10
2015,11,25,10,11,5.20
2015,11,25,10,12,5.30
2015,11,25,10,13,5.30
2015,11,25,10,14,5.40
2015,11,25,10,15,5.50
2015,11,25,10,16,5.50
2015,11,25,10,17,5.50
2015,11,25,10,18,5.60
2015,11,25,10,19,5.60
2015,11,25,10,20,5.70
2015,11,25,10,21,5.70
2015,11,25,10,22,5.70
2015,11,25,10,23,5.80
2015,11,25,10,24,5.80
2015,11,25,10,25,5.90
2015,11,25,10,26,5.90
2015,11,25,10,27,6.00
2015,11,25,10,28,6.10
2015,11,25,10,29,6.10
2015,11,25,10,30,6.20
2015,11,25,10,31,6.20
2015,11,25,10,32,6.30
2015,11,25,10,33,6.40
2015,11,25,10,34,6.50
2015,11,25,10,35,6.50
2015,11,25,10,36,6.60
2015,11,25,10,37,6.70
2015,11,25,10,38,6.70
2015,11,25,10,39,6.80
2015,11,25,10,40,6.80
2015,11,25,10,41,6.90
2015,11,25,10,42,6.90
2015,11,25,10,43,6.90
2015,11,25,10,44,6.90
2015,11,25,10,45,6.90
2015,11,25,10,46,6.90
2015,11,25,10,47,6.90
2015,11,25,10,48,6.90
2015,11,25,10,49,6.90
2015,11,25,10,50,6.90
2015,11,25,10,51,7.00
2015,11,25,10,52,7.00
2015,11,25,10,53,7.00
2015,11,25,10,54,7.00
2015,11,25,10,55,7.00
2015,11,25,10,56,7.00
2015,11,25,10,57,6.90
2015,11,25,10,58,6.90
2015,11,25,10,59,6.80
2015,11,25,11,00,6.80
2015,11,25,11,01,6.70
2015,11,25,11,02,6.70
2015,11,25,11,03,6.70
2015,11,25,11,04,6.70
2015,11,25,11,05,6.70
2015,11,25,11,06,6.70
2015,11,25,11,07,6.70
2015,11,25,11,08,6.80
2015,11,25,11,09,6.80
2015,11,25,11,10,6.80
2015,11,25,11,11,6.80
2015,11,25,11,12,6.90
2015,11,25,11,13,7.00
2015,11,25,11,14,7.00
2015,11,25,11,15,7.00
2015,11,25,11,16,7.00
2015,11,25,11,17,6.90
2015,11,25,11,18,6.90
2015,11,25,11,19,6.90
2015,11,25,11,20,6.80
2015,11,25,11,21,6.80
2015,11,25,11,22,6.80
2015,11,25,11,23,6.80
2015,11,25,11,24,6.80
2015,11,25,11,25,6.70
2015,11,25,11,26,6.70
2015,11,25,11,27,6.70
2015,11,25,11,28,6.70
2015,11,25,11,29,6.80
2015,11,25,11,30,6.80
2015,11,25,11,31,6.80
2015,11,25,11,32,6.80
2015,11,25,11,33,6.80
2015,11,25,11,34,6.90
2015,11,25,11,35,6.90
2015,11,25,11,36,6.90
2015,11,25,11,37,7.00
2015,11,25,11,38,7.10
2015,11,25,11,39,7.10
2015,11,25,11,40,7.10
2015,11,25,11,41,7.10
2015,11,25,11,42,7.10
2015,11,25,11,43,7.10
2015,11,25,11,44,7.10
2015,11,25,11,45,7.10
2015,11,25,11,46,7.20
2015,11,25,11,47,7.20
2015,11,25,11,48,7.20
2015,11,25,11,49,7.20
2015,11,25,11,50,7.20
2015,11,25,11,51,7.20
2015,11,25,11,52,7.20
2015,11,25,11,53,7.20
2015,11,25,11,54,7.10
2015,11,25,11,55,7.10
2015,11,25,11,56,7.10
2015,11,25,11,57,7.00
2015,11,25,11,58,6.90
2015,11,25,11,59,6.90
2015,11,25,12,00,6.90
2015,11,25,12,01,6.90
2015,11,25,12,02,6.90
2015,11,25,12,03,6.80
2015,11,25,12,04,6.80
2015,11,25,12,05,6.80
2015,11,25,12,06,6.80
2015,11,25,12,07,6.80
2015,11,25,12,08,6.80
2015,11,25,12,09,6.80
2015,11,25,12,10,6.80
2015,11,25,12,11,6.90
2015,11,25,12,12,6.90
2015,11,25,12,13,6.90
2015,11,25,12,14,6.90
2015,11,25,12,15,6.90
2015,11,25,12,16,6.90
2015,11,25,12,17,6.90
2015,11,25,12,18,6.90
2015,11,25,12,19,6.90
2015,11,25,12,20,6.90
2015,11,25,12,21,6.90
2015,11,25,12,22,6.90
2015,11,25,12,23,6.90
2015,11,25,12,24,6.90
2015,11,25,12,25,6.90
2015,11,25,12,26,6.90
2015,11,25,12,27,6.90
2015,11,25,12,28,7.00
2015,11,25,12,29,7.00
2015,11,25,12,30,7.00
2015,11,25,12,31,7.10
2015,11,25,12,32,7.10
2015,11,25,12,33,7.10
2015,11,25,12,34,7.20
2015,11,25,12,35,7.20
2015,11,25,12,36,7.30
2015,11,25,12,37,7.30
2015,11,25,12,38,7.40
2015,11,25,12,39,7.40
2015,11,25,12,40,7.50
2015,11,25,12,41,7.50
2015,11,25,12,42,7.60
2015,11,25,12,43,7.60
2015,11,25,12,44,7.60
2015,11,25,12,45,7.60
2015,11,25,12,46,7.60
2015,11,25,12,47,7.60
2015,11,25,12,48,7.60
2015,11,25,12,49,7.60
2015,11,25,12,50,7.60
2015,11,25,12,51,7.60
2015,11,25,12,52,7.50
2015,11,25,12,53,7.50
2015,11,25,12,54,7.40
2015,11,25,12,55,7.40
2015,11,25,12,56,7.30
2015,11,25,12,57,7.30
2015,11,25,12,58,7.30
2015,11,25,12,59,7.20
2015,11,25,13,00,7.20
2015,11,25,13,01,7.20
2015,11,25,13,02,7.20
2015,11,25,13,03,7.20
2015,11,25,13,04,7.20
2015,11,25,13,05,7.20
2015,11,25,13,06,7.20
2015,11,25,13,07,7.10
2015,11,25,13,08,7.10
2015,11,25,13,09,7.10
2015,11,25,13,10,7.10
2015,11,25,13,11,7.00
2015,11,25,13,12,7.00
2015,11,25,13,13,7.00
2015,11,25,13,14,7.00
2015,11,25,13,15,7.10
2015,11,25,13,16,7.00
2015,11,25,13,17,7.00
2015,11,25,13,18,7.00
2015,11,25,13,19,7.00
2015,11,25,13,20,7.00
2015,11,25,13,21,7.00
2015,11,25,13,22,7.00
2015,11,25,13,23,7.10
2015,11,25,13,24,7.10
2015,11,25,13,25,7.10
2015,11,25,13,26,7.10
2015,11,25,13,27,7.10
2015,11,25,13,28,7.10
2015,11,25,13,29,7.10
2015,11,25,13,30,7.10
2015,11,25,13,31,7.10
2015,11,25,13,32,7.10
2015,11,25,13,33,7.10
2015,11,25,13,34,7.00
2015,11,25,13,35,7.00
2015,11,25,13,36,7.00
2015,11,25,13,37,7.00
2015,11,25,13,38,7.00
2015,11,25,13,39,7.00
2015,11,25,13,40,7.00
2015,11,25,13,41,7.00
2015,11,25,13,42,7.00
2015,11,25,13,43,7.00
2015,11,25,13,44,7.00
2015,11,25,13,45,7.00
2015,11,25,13,46,7.00
2015,11,25,13,47,7.00
2015,11,25,13,48,7.00
2015,11,25,13,49,7.00
2015,11,25,13,50,6.90
2015,11,25,13,51,6.90
2015,11,25,13,52,6.80
2015,11,25,13,53,6.80
2015,11,25,13,54,6.80
2015,11,25,13,55,6.80
2015,11,25,13,56,6.80
2015,11,25,13,57,6.80
2015,11,25,13,58,6.80
2015,11,25,13,59,6.80
2015,11,25,14,00,6.80
2015,11,25,14,01,6.80
2015,11,25,14,02,6.80
2015,11,25,14,03,6.90
2015,11,25,14,04,6.90
2015,11,25,14,05,6.90
2015,11,25,14,06,6.90
2015,11,25,14,07,6.90
2015,11,25,14,08,6.90
2015,11,25,14,09,6.90
2015,11,25,14,10,6.90
2015,11,25,14,11,6.90
2015,11,25,14,12,6.90
2015,11,25,14,13,6.80
2015,11,25,14,14,6.90
2015,11,25,14,15,6.90
2015,11,25,14,16,6.90
2015,11,25,14,17,6.90
2015,11,25,14,18,6.80
2015,11,25,14,19,6.80
2015,11,25,14,20,6.80
2015,11,25,14,21,6.80
2015,11,25,14,22,6.80
2015,11,25,14,23,6.80
2015,11,25,14,24,6.80
2015,11,25,14,25,6.80
2015,11,25,14,26,6.80
2015,11,25,14,27,6.80
2015,11,25,14,28,6.80
2015,11,25,14,29,6.80
2015,11,25,14,30,6.80
2015,11,25,14,31,6.80
2015,11,25,14,32,6.70
2015,11,25,14,33,6.70
2015,11,25,14,34,6.70
2015,11,25,14,35,6.70
2015,11,25,14,36,6.70
2015,11,25,14,37,6.70
2015,11,25,14,38,6.70
2015,11,25,14,39,6.60
2015,11,25,14,40,6.60
2015,11,25,14,41,6.60
2015,11,25,14,42,6.60
2015,11,25,14,43,6.60
2015,11,25,14,44,6.60
2015,11,25,14,45,6.60
2015,11,25,14,46,6.60
2015,11,25,14,47,6.60
2015,11,25,14,48,6.60
2015,11,25,14,49,6.60
2015,11,25,14,50,6.60
2015,11,25,14,51,6.70
2015,11,25,14,52,6.70
2015,11,25,14,53,6.70
2015,11,25,14,54,6.70
2015,11,25,14,55,6.70
2015,11,25,14,56,6.70
2015,11,25,14,57,6.60
2015,11,25,14,58,6.60
2015,11,25,14,59,6.60
2015,11,25,15,00,6.60
2015,11,25,15,01,6.60
2015,11,25,15,02,6.60
2015,11,25,15,03,6.60
2015,11,25,15,04,6.60
2015,11,25,15,05,6.60
2015,11,25,15,06,6.60
2015,11,25,15,07,6.60
2015,11,25,15,08,6.60
2015,11,25,15,09,6.60
2015,11,25,15,10,6.70
2015,11,25,15,11,6.70
2015,11,25,15,12,6.70
2015,11,25,15,13,6.70
2015,11,25,15,14,6.70
2015,11,25,15,15,6.70
2015,11,25,15,16,6.70
2015,11,25,15,17,6.80
2015,11,25,15,18,6.70
2015,11,25,15,19,6.70
2015,11,25,15,20,6.70
2015,11,25,15,21,6.70
2015,11,25,15,22,6.70
2015,11,25,15,23,6.70
2015,11,25,15,24,6.70
2015,11,25,15,25,6.70
2015,11,25,15,26,6.60
2015,11,25,15,27,6.60
2015,11,25,15,28,6.60
2015,11,25,15,29,6.60
2015,11,25,15,30,6.60
2015,11,25,15,31,6.60
2015,11,25,15,32,6.60
2015,11,25,15,33,6.60
2015,11,25,15,34,6.60
2015,11,25,15,35,6.60
2015,11,25,15,36,6.60
2015,11,25,15,37,6.60
2015,11,25,15,38,6.60
2015,11,25,15,39,6.50
2015,11,25,15,40,6.50
2015,11,25,15,41,6.40
2015,11,25,15,42,6.40
2015,11,25,15,43,6.30
2015,11,25,15,44,6.30
2015,11,25,15,45,6.30
2015,11,25,15,46,6.30
2015,11,25,15,47,6.20
2015,11,25,15,48,6.10
2015,11,25,15,49,6.00
2015,11,25,15,50,5.90
2015,11,25,15,51,5.70
2015,11,25,15,52,5.60
2015,11,25,15,53,5.50
2015,11,25,15,54,5.40
2015,11,25,15,55,5.30
2015,11,25,15,56,5.20
2015,11,25,15,57,5.10
2015,11,25,15,58,5.00
2015,11,25,15,59,4.90
2015,11,25,16,00,4.80
2015,11,25,16,01,4.70
2015,11,25,16,02,4.60
2015,11,25,16,03,4.50
2015,11,25,16,04,4.40
2015,11,25,16,05,4.30
2015,11,25,16,06,4.20
2015,11,25,16,07,4.10
2015,11,25,16,08,4.00
2015,11,25,16,09,3.90
2015,11,25,16,10,3.80
2015,11,25,16,11,3.70
2015,11,25,16,12,3.60
2015,11,25,16,13,3.60
2015,11,25,16,14,3.50
2015,11,25,16,15,3.40
2015,11,25,16,16,3.40
2015,11,25,16,17,3.30
2015,11,25,16,18,3.30
2015,11,25,16,19,3.20
2015,11,25,16,20,3.10
2015,11,25,16,21,3.10
2015,11,25,16,22,3.00
2015,11,25,16,23,2.90
2015,11,25,16,24,2.90
2015,11,25,16,25,2.80
2015,11,25,16,26,2.80
2015,11,25,16,27,2.80
2015,11,25,16,28,2.70
2015,11,25,16,29,2.70
2015,11,25,16,30,2.60
2015,11,25,16,31,2.60
2015,11,25,16,32,2.60
2015,11,25,16,33,2.50
2015,11,25,16,34,2.50
2015,11,25,16,35,2.40
2015,11,25,16,36,2.40
2015,11,25,16,37,2.30
2015,11,25,16,38,2.30
2015,11,25,16,39,2.20
2015,11,25,16,40,2.20
2015,11,25,16,41,2.10
2015,11,25,16,42,2.10
2015,11,25,16,43,2.00
2015,11,25,16,44,2.00
2015,11,25,16,45,1.90
2015,11,25,16,46,1.90
2015,11,25,16,47,1.80
2015,11,25,16,48,1.80
2015,11,25,16,49,1.80
2015,11,25,16,50,1.80
2015,11,25,16,51,1.70
2015,11,25,16,52,1.70
2015,11,25,16,53,1.70
2015,11,25,16,54,1.70
2015,11,25,16,55,1.60
2015,11,25,16,56,1.60
2015,11,25,16,57,1.50
2015,11,25,16,58,1.50
2015,11,25,16,59,1.40
2015,11,25,17,00,1.40
2015,11,25,17,01,1.30
2015,11,25,17,02,1.30
2015,11,25,17,03,1.30
2015,11,25,17,04,1.30
2015,11,25,17,05,1.30
2015,11,25,17,06,1.30
2015,11,25,17,07,1.30
2015,11,25,17,08,1.30
2015,11,25,17,09,1.30
2015,11,25,17,10,1.30
2015,11,25,17,11,1.20
2015,11,25,17,12,1.20
2015,11,25,17,13,1.10
2015,11,25,17,14,1.10
2015,11,25,17,15,1.10
2015,11,25,17,16,1.00
2015,11,25,17,17,1.00
2015,11,25,17,18,1.00
2015,11,25,17,19,0.90
2015,11,25,17,20,0.90
2015,11,25,17,21,0.90
2015,11,25,17,22,0.90
2015,11,25,17,23,0.80
2015,11,25,17,24,0.80
2015,11,25,17,25,0.80
2015,11,25,17,26,0.80
2015,11,25,17,27,0.80
2015,11,25,17,28,0.80
2015,11,25,17,29,0.80
2015,11,25,17,30,0.70
2015,11,25,17,31,0.70
2015,11,25,17,32,0.70
2015,11,25,17,33,0.70
2015,11,25,17,34,0.70
2015,11,25,17,35,0.70
2015,11,25,17,36,0.60
2015,11,25,17,37,0.60
2015,11,25,17,38,0.60
2015,11,25,17,39,0.60
2015,11,25,17,40,0.50
2015,11,25,17,41,0.50
2015,11,25,17,42,0.40
2015,11,25,17,43,0.40
2015,11,25,17,44,0.40
2015,11,25,17,45,0.40
2015,11,25,17,46,0.30
2015,11,25,17,47,0.30
2015,11,25,17,48,0.30
2015,11,25,17,49,0.20
2015,11,25,17,50,0.20
2015,11,25,17,51,0.20
2015,11,25,17,52,0.20